Погода в Пензе

Погода в Пензе : погода сейчас, прогноз погоды и архив. Всё, что Вы хотите узнать о погоде в Пензе!

Хотите узнать прогноз погоды в Пензе? Тогда Вам сюда: Погода в Пензе

Поиск расширенной информации на нашем сайте:

Другие новости

Новости СМИ2

Главная страница сайта

Новости сайта

02.10.2013

Напоминаем, что на нашем новом сайте вы можете получить высокодетализированные прогнозы погоды по пунктам России, СНГ и мира (включающие важные для авиации метеовеличины, такие как направление и скорость ветра, видимость, явления погоды, количество и форма облачности, нижняя и верхняя граница облачности), а также ознакомиться с разнообразными материалами по авиационной метеорологии и подборкой полезных ссылок на эту тему.

Сайт Метеоцентр.Азия посвящён разработке технологий оптимизации авиаметеорологического обслуживания, включая проектирование и перспективное создание нескольких автоматизированных авиаметеорологических систем:
- система выпуска высокодетальных прогностических карт явлений погоды для нижнего воздушного пространства по России и ближнему зарубежью;
- система верификации прогнозов TAF (выпускаемых синоптиками официальных АМСГ РФ и ближнего зарубежья) и AUTOTAF (выпускаемых сайтом Метеоцентр.Азия) - выявление ошибок, онлайн-сопоставление с фактической погодой METAR, автоматическое внесение коррективов в прогнозы при резком отклонении фактической погоды от прогноза, подсчёт оправдываемости прогнозов по элементам и в целом;
- система обработки, анализа и отображения авиаметеорологической информации для применения провайдерами метеорологической информации.

Рекомендуем: Нижегородская типография ОЛИВЕР: печать листовок.

Погода в Пензе - сегодня

Время (UTC), дата Ветер
(°,м/с) 
Видим.   Явления Облачность Т
(°С)
Тd
(°С)
f(%) Тe
(°С)
Pmin
(гПа)
dP
(гПа)
Po
(мм)
O2
(г/м3)
Тmin Tmax R s Состояние
почвы
18 27.03.17 190 (Ю) 10 км  {снег}  10/10 420 м 
[St]
+0.2 -0.2 97 +1  995  0.1  730  294           
21 27.03.17 310 (СЗ) 4000 м  дымка{снег}  10/10 600 м 
[Sc]
-0.2 -0.7 96 -1  995.6  0.5  731  295           
00 28.03.17 320 (СЗ) 4000 м  дымка{снег}  10/10 570 м 
[Sc]
+0.1 -1.1 92 -1  996.1  0.5  731  295           
03 28.03.17 320 (СЗ) 10 км    10/10 600 м 
[Sc]
-0.6 -2.1 90 -2  996.3  0.2  731  296  -0.7    0.8     
06 28.03.17 260 (З) 10 км    9/5 600 м кучево-дожд., средняя 
[Cb cap|Ac trans]
-0.4 -1.8 90 -3  996  -0.3  731  295  -0.8         
09 28.03.17 250 (З) 4{11}  2000 м  сильн. снег  10/10 300 м 
[Frnb|Ns]
+0.5 -0.6 92 -2  993.8  -2.1  730  293           
12 28.03.17 200 (Ю) 4000 м  слаб. снег  10/0 средняя 
[As trans]
+1.1 +0.3 94 991.2  -2.5  728  292           
15 28.03.17 240 (ЮЗ) 4000 м  слаб. снег{дождь}  10/10 360 м 
[Frnb]
+1.2 +0.4 94 +1  990.2  -1  727  291    +1.9     
18 28.03.17 310 (СЗ) 4000 м  слаб. снег{дождь}  10/10 270 м 
[Frnb]
+0.5 +0.1 97 990.7  0.4  727  292           
21 28.03.17 020 (С) 5-11{11}  4000 м  снег [диам. отлож. мокр. снега 3 мм]  10/10 300 м 
[Frnb]
-0.1 -0.5 97 -3  993  2.2  729  294           
00 29.03.17 340 (С) 6-12{14}  10 км  {снег} [диам. отлож. мокр. снега 6 мм]  10/8 800 м средняя 
[Sc|As op]
-1.4 -2.9 89 -5  996.6  3.4  731  297           
03 29.03.17 320 (СЗ) 10 км  [диам. отлож. мокр. снега 6 мм]  3/0 средняя 
[Ac As]
-3.5 -6.3 81 -6  1000  3.2  734  300  -3.5    равномерный
мокрый или
старый снег
100% 
06 29.03.17 310 (СЗ) 6-11{11}  10 км    3/0 верхняя 
[Ci fib]
-2.4 -6.1 76 -6  1003  736  300  -3.9         
09 29.03.17 330 (СЗ) 5{12}  10 км    5/5 600 м 
[Sc]
-0.2 -6.4 63 -3  1004.4  1.6  737  298           
12 29.03.17 350 (С) 6-14{14}  10 км  в посл. час снег  8/8 720 м 
[Frnb]
-0.7 -6.8 63 -4  1005.9  1.4  738  299           
15 29.03.17 350 (С) 6{14}  10 км    8/4 900 м верхняя 
[Sc|Ci fib]
-1.3 -12.1 44 -5  1008.2  2.3  740  301    +0  0.0     
18 29.03.17 300 (СЗ) 2{13}  10 км    ясно 
-4.1 -9.7 65 -5  1010.8  742  304           
21 29.03.17 280 (З) 10 км    ясно 
-5.9 -10.5 70 -7  1011.6  0.6  742  307           
00 30.03.17 250 (З) 10 км    ясно 
-7 -10.3 77 -10  1011.5  -0.2  742  308           
03 30.03.17 250 (З) 10 км    9/0 верхняя 
[Cs]
-6.8 -9.4 82 -8  1012.2  0.7  743  308  -7.2         
06 30.03.17 300 (СЗ) 10 км    9/0 средняя, верхняя 
[Ac trans|Cc]
-2 -7.7 65 -3  1011.6  -0.2  742  302           
09 30.03.17 340 (С) 10 км    10/3 600 м средняя 
[Sc|As trans]
+0.3 -12 39 -1  1011.1  -0.3  742  300           
12 30.03.17 020 (С) 10 км    10/4 600 м кучево-дожд., верхняя 
[Cb cap|Cs]
+1 -10.6 42 -1  1011.6  0.5  743  299           
15 30.03.17 030 (СВ) 10 км  в посл. час крупа{ливн. осадки}  9/8 360 м кучево-дожд., средняя 
[Cb cap|Ac trans]
-2.7 -4.1 90 -4  1014.4  2.5  744  303    +1.4  0.3     
18 30.03.17 340 (С) 10 км  {ливн. осадки}  1/0 средняя 
[Ac trans]
-4.1 -7.3 78 -4  1017.6  747  306           
Время (UTC), дата Ветер
(°,м/с) 
Видим.   Явления Облачность Т
(°С)
Тd
(°С)
f(%) Тe
(°С)
Pmin
(гПа)
dP
(гПа)
Po
(мм)
O2
(г/м3)
Тmin Tmax R s Состояние
почвы

Для получения пояснительной информации подведите курсор к названию столбца.

ПОГОДА в Пензе - архив

Всё, что Вы хотите узнать о погоде в Пензе - удобно и подробно!

Выберите нужную дату (начиная с 1 января 2015* года) и нажмите кнопку "Найти".
Будут отображены архивные сводки погоды по пункту Пенза, начиная с указанной даты.


Отображать данные в формате CSV (для использования в таблицах Excel)


Внимание! Наш архив погоды предназначен исключительно для личного некоммерческого использования в познавательных целях. Если Вам необходимы официальные справки о состоянии погоды (для производственных, юридических, коммерческих и т.п. целей), обращайтесь в органы Росгидромета.

*Примечание: данная дата относится к архиву по метеостанциям СССР (Россия, СНГ, Балтия).
Архив по метеостанциям Зарубежной Европы и Азии (кроме Китая) хранится 10 дней, по другим регионам земного шара (Китай, Африка, Америка, Австралия, Океания) - 1 день.

Пенза - район местоположения метеостанции


Название, широта, долгота, высота метеостанции:
Пенза (Терновка) 53.1°ш. 45°д. 177 м над ур. моря [Российская Федерация]

Дополнительная информация

В oтличие oт бoльшинства пoгoдных сайтoв мы публикуем пoдрoбную метеoинфoрмацию в детальнoм прoфессиoнальнoм фoрмате.

Характеристики температуры и влажнoсти вoздуха измеряются на высoте 2 м в тени вдали oт зданий и деревьев.
Скoрoсть ветра измеряется на высoте 10 м (на урoвне рoста челoвека скoрoсть ветра ниже в 1.5-2 раза). Если метеoстанция нахoдится в гoрoде или в лесу, тo скoрoсть ветра занижена на 2-4 м/с пo сравнению с oткрытым местoм. Скoрoсть ветра над акватoриями крупных рек и oзёр, а также на вершинах хoлмoв на 2-5 м/с выше, чем в oбычных услoвиях.
Атмoсфернoе давление в разных тoчках местнoсти мoжет значительнo oтличаться oт давления на метеoстанции, в зависимoсти oт услoвий рельефа (при пoдъёме на 10 м давление пoнижается примернo на 1 мм рт.ст.).